Flag for Mauritania Weather past 2 weeks in Nouakchott, Mauritania

73 °F


Feels Like: 75 °F
Forecast: 70 / 89 °F
Wind: 21 mph from East

Location: Nouakchott Airport

Current Time: Dec 1, 2015 at 9:39:08 AM

Latest Report: Dec 1, 2015 at 9:00 AM

Visibility: 1 mi

Pressure: 30.07 "Hg

Humidity: 19%

Dew point: 28 °F

Location of NouakchottLocation

Historic Weather in Nouakchott — Graph


Nouakchott temperature yesterday

Maximum temperature yesterday: 86 °F (at 3:00 PM)
Minimum temperature yesterday: 73 °F (at 10:30 PM)
Average temperature yesterday: 80 °F

Past Weeks' High & Low Weather Summary

High91 °F (Nov 16, 3:00 PM)69% (Nov 24, 8:30 PM)30.09 "Hg (Nov 24, 8:30 PM)
Low59 °F (Nov 25, 6:30 AM)9% (Nov 28, 1:30 PM)29.80 "Hg (Nov 22, 5:00 PM)
Average79 °F22%29.95 "Hg
* Reported Nov 16 9:00 AM — Dec 1 9:00 AM, Nouakchott, Weather by CustomWeather, © 2015

Note: Actual official high and low records may vary slightly from our data, if they occured in-between our weather recording intervals... More about our weather records


Nouakchott weather history for previous 24 hours

Time TempWeatherWind HumidityBarometerVisibility
9:00 AM
Tue, Dec 1
73 °FSandstorm.21 mph19%30.07 "Hg1 mi
8:00 AM68 °FLow level haze.14 mph20%30.07 "Hg2 mi
7:30 AM68 °FClear.7 mph20%30.07 "Hg4 mi
7:00 AM70 °FClear.13 mph17%30.04 "Hg4 mi
6:30 AM68 °FClear.9 mph17%30.04 "Hg4 mi
6:00 AM68 °FClear.8 mph17%30.04 "Hg4 mi
5:30 AM68 °FClear.7 mph17%30.04 "Hg4 mi
5:00 AM68 °FClear.7 mph18%30.04 "Hg4 mi
4:30 AM68 °FClear.7 mph18%30.01 "Hg4 mi
4:00 AM70 °FClear.8 mph16%30.04 "Hg4 mi
3:30 AM70 °FClear.7 mph17%30.04 "Hg4 mi
3:00 AM72 °FClear.7 mph16%30.04 "Hg4 mi
2:30 AM72 °FClear.7 mph15%30.04 "Hg4 mi
2:00 AM72 °FClear.6 mph16%30.04 "Hg4 mi
1:00 AM72 °FClear.7 mph16%30.07 "Hg4 mi
12:00 AM73 °FClear.8 mph15%30.07 "Hg4 mi
11:30 PM
Mon, Nov 30
75 °FClear.10 mph14%30.07 "Hg4 mi
11:00 PM73 °FClear.7 mph15%30.07 "Hg4 mi
10:30 PM73 °FLow level haze.3 mph15%30.07 "Hg2 mi
10:00 PM75 °FLow level haze.7 mph14%30.07 "Hg2 mi
9:30 PM77 °FLow level haze.8 mph13%30.07 "Hg2 mi
9:00 PM77 °FLow level haze.7 mph13%30.07 "Hg2 mi
8:30 PM79 °FLow level haze.8 mph12%30.07 "Hg2 mi
8:00 PM81 °FSandstorm.12 mph11%30.04 "Hg2 mi
7:30 PM82 °FSandstorm.13 mph11%30.04 "Hg2 mi
7:00 PM82 °FSandstorm.12 mph11%30.04 "Hg2 mi
6:30 PM82 °FSandstorm.13 mph11%30.04 "Hg2 mi
6:00 PM84 °FSandstorm.12 mph10%30.04 "Hg2 mi
5:30 PM86 °FSandstorm.14 mph10%30.04 "Hg2 mi
5:00 PM86 °FSandstorm.13 mph10%30.04 "Hg2 mi
4:30 PM86 °FSandstorm.14 mph10%30.01 "Hg2 mi
4:00 PM84 °FSandstorm.15 mph10%30.01 "Hg2 mi
3:30 PM86 °FSandstorm.14 mph10%30.04 "Hg2 mi
3:00 PM86 °FSandstorm.13 mph11%30.04 "Hg2 mi
2:00 PM84 °FSandstorm.15 mph10%30.04 "Hg2 mi
1:30 PM82 °FSandstorm.16 mph11%30.07 "Hg2 mi
1:00 PM82 °FSandstorm.15 mph12%30.07 "Hg2 mi
12:30 PM82 °FSandstorm.15 mph12%30.07 "Hg2 mi
12:00 PM81 °FSandstorm.16 mph13%30.09 "Hg3 mi
11:30 AM81 °FSandstorm.17 mph13%30.09 "Hg3 mi
11:00 AM79 °FSandstorm.15 mph15%30.09 "Hg3 mi
10:30 AM79 °FClear.14 mph13%30.09 "Hg4 mi
10:00 AM77 °FClear.14 mph15%30.09 "Hg4 mi
9:30 AM77 °FClear.14 mph15%30.09 "Hg4 mi
9:00 AM77 °FClear.13 mph14%30.09 "Hg4 mi
Weather by CustomWeather, © 2015

See weather overviewHow to use our weather pages